Location: Breezy Point Observatory
(38.9725°N, 81.7133°W)
Time: 21:26:42
(UTC-04:00)

Hubble Space Telescope - Visible Passes

Search period start: 19 April 2018 00:00
Search period end: 29 April 2018 00:00
Orbit: 537 x 541 km, 28.5° (Epoch: 19 April)

Date Brightness Start Highest point End Pass type
(mag) Time Alt. Az. Time Alt. Az. Time Alt. Az.
19 Apr 3.0 05:26:25 11° S 05:26:25 11° S 05:27:04 10° S visible
25 Apr 3.0 21:29:34 10° S 21:29:53 10° S 21:29:53 10° S visible
26 Apr 2.8 21:18:23 10° SSW 21:20:13 13° SSE 21:20:37 13° SSE visible
27 Apr 2.7 21:07:31 10° SSW 21:09:47 14° SSE 21:11:13 12° SE visible
28 Apr 2.6 20:56:49 10° SSW 20:59:21 16° S 21:01:43 11° SE visible
28 Apr 3.4 22:36:59 10° SW 22:37:05 10° SW 22:37:05 10° SW visible
